User: anonymous   Login
Location: Unspecified
(0.0000°N, 0.0000°E)
Time: 06:09:18
(UTC+00:00)
Language:

FENGMANIU-1 - Orbit

View from above orbital plane
View from above orbital plane
View from above satellite
View from above satellite

Ground track
Ground track

The orbit data is extracted from the following two-line orbital elements,

1 43192U 18015A   19082.93122555 +.00002018 +00000-0 +86326-4 0  9996
2 43192 097.3852 211.8725 0014942 236.8776 123.1016 15.23891292063106
Epoch (UTC): 23 March 2019 22:20:57
Eccentricity: 0.0014942
inclination: 97.3852°
perigee height: 484 km
apogee height: 504 km
right ascension of ascending node: 211.8725°
argument of perigee: 236.8776°
revolutions per day: 15.23891292
mean anomaly at epoch: 123.1016°
orbit number at epoch: 6310

The dashed part of the orbit path shows where the satellite is in the earth's shadow,  

DLR